GFSFLT2_prec_cloud_189.txt.gz
Cloud_Cover
100 100 100 100 98 8 18 5 30 56 5 6 17 13 4 0 0 0 0 0 0 0 0 0 0 0 0 0 1 42 29 17
100 100 100 100 94 27 17 13 18 60 6 5 84 12 5 0 0 0 0 0 0 4 4 0 0 0 0 0 3 99 1 0
100 100 100 86 100 82 79 41 74 100 84 46 20 28 10 0 4 5 0 3 1 1 0 0 0 0 0 0 5 4 2 5
100 100 100 24 56 100 96 100 100 100 100 38 44 74 18 5 17 55 54 5 5 4 4 1 0 0 1 0 5 5 5 5
100 100 100 94 14 79 97 100 100 100 43 45 88 27 21 6 35 72 100 100 65 32 5 5 5 5 5 5 32 81 9 27
100 76 18 5 5 7 99 100 100 100 5 81 41 5 6 24 38 29 20 6 27 79 100 92 5 7 18 5 22 67 5 20
10 5 5 5 8 10 99 100 100 100 100 23 5 5 9 5 100 25 92 89 100 37 100 63 100 18 5 3 14 38 13 84
22 5 5 4 21 100 94 100 100 100 100 100 86 36 19 71 49 76 98 100 100 100 100 69 98 97 3 2 30 94 81 57
100 14 2 6 10 99 97 100 100 100 100 100 67 100 56 94 96 98 100 96 100 100 100 98 100 100 58 4 63 100 75 38
45 100 5 39 99 100 100 100 100 100 81 100 81 62 61 72 100 100 100 100 100 100 100 100 100 100 100 99 100 100 100 99
67 100 95 100 100 100 93 100 100 100 72 57 100 100 100 100 100 100 100 100 100 100 100 100 100 100 100 100 80 100 100 100
98 100 98 36 100 100 100 100 76 57 93 100 83 95 98 100 100 100 95 100 100 100 100 100 100 100 100 100 100 100 100 100
65 100 100 100 100 100 100 100 98 100 86 6 5 19 100 84 100 100 100 100 100 100 100 100 60 100 100 100 100 100 100 100
100 100 100 100 100 100 100 100 100 100 100 100 57 65 100 100 100 100 90 100 100 100 100 100 80 100 100 100 100 100 100 100
100 100 100 100 100 100 100 100 100 100 100 100 100 100 100 100 100 100 100 100 100 100 100 100 100 100 100 100 100 100 100 100
99 100 100 100 100 100 100 100 100 100 100 100 100 100 100 100 100 100 100 100 100 100 100 100 100 100 100 100 100 100 100 100
100 100 100 100 100 100 100 100 92 100 100 100 100 100 100 100 100 100 99 99 100 100 100 100 100 100 100 100 100 100 100 100
100 100 100 100 100 100 100 99 100 100 100 100 100 100 100 100 100 100 100 100 100 100 100 100 100 100 100 100 100 100 100 100
100 100 100 100 100 100 98 100 100 98 100 100 100 100 100 100 100 100 100 100 100 100 100 100 100 100 100 100 100 100 100 100
100 100 100 100 100 100 100 100 100 100 100 100 100 100 100 100 100 100 100 100 100 100 100 100 100 100 100 100 100 100 100 100

GFSFLT2_prec_cloud_192.txt.gz
Cloud_Cover
46 80 100 100 100 100 60 26 10 84 15 100 10 8 5 5 4 0 2 0 0 0 0 0 0 0 0 0 1 0 0 4
36 88 100 100 100 100 100 51 5 100 100 100 100 21 5 5 23 1 5 5 5 3 3 0 0 2 5 4 0 0 0 0
21 77 100 100 100 99 30 15 5 97 100 100 100 18 88 4 4 5 5 2 6 6 5 5 4 5 5 5 20 2 5 15
8 48 100 100 100 99 66 64 43 94 99 100 100 44 92 5 1 4 5 11 5 5 5 9 94 11 20 10 5 5 7 28
1 100 100 98 58 100 100 100 100 100 100 100 100 100 88 45 88 38 30 69 12 5 5 34 12 59 98 58 5 5 23 38
9 100 57 16 60 100 100 100 100 100 100 100 100 100 100 100 94 88 36 53 44 24 100 27 5 48 100 100 90 5 36 36
82 100 4 5 52 87 100 100 100 79 98 100 100 100 100 48 52 51 58 31 13 63 100 87 69 100 100 100 100 40 65 85
95 85 5 5 0 10 40 75 43 63 100 100 100 100 100 81 74 58 84 86 100 100 100 100 84 99 100 95 99 100 100 91
76 90 27 60 4 18 12 5 99 100 100 100 100 100 100 100 90 100 100 100 100 100 100 100 100 75 65 100 100 100 100 100
100 100 100 68 84 100 100 100 100 100 100 100 100 85 100 100 100 100 100 100 100 100 100 91 88 6 51 100 100 100 100 100
100 100 90 100 100 100 100 100 100 100 100 100 100 91 93 100 100 100 100 100 100 100 100 91 95 94 100 86 99 95 100 100
100 100 100 71 93 96 100 100 100 100 100 72 97 96 72 96 100 100 100 100 100 100 100 100 100 100 100 94 100 100 100 100
96 100 99 100 100 100 100 100 100 100 100 88 65 82 100 5 100 100 100 100 100 100 100 100 100 100 100 100 100 90 100 100
90 100 100 100 96 74 84 65 100 100 100 100 100 100 100 100 100 100 100 98 100 100 100 100 100 100 100 100 100 100 100 100
100 100 98 85 100 100 100 100 100 100 100 100 100 100 100 100 98 78 100 99 100 100 100 100 100 100 100 100 100 100 100 100
100 100 100 100 100 100 100 100 100 100 100 100 93 100 92 100 100 99 92 48 100 100 100 99 98 100 100 100 100 100 100 100
100 100 95 100 100 95 89 95 100 100 100 100 100 100 100 100 100 100 100 100 100 100 100 100 100 100 100 100 100 100 100 100
100 100 100 100 86 72 99 100 100 100 100 100 100 100 100 100 100 100 100 100 100 100 100 100 100 100 100 100 100 100 100 100
69 99 100 100 97 100 100 100 100 100 100 100 100 100 100 100 100 100 100 100 100 100 100 100 100 100 90 100 100 100 100 100
98 99 100 97 97 100 100 100 100 100 100 100 100 100 100 100 100 100 100 100 100 99 91 100 100 98 100 100 100 100 100 100

GFSFLT2_prec_cloud_195.txt.gz
Cloud_Cover
88 100 87 3 100 100 100 100 77 5 50 100 100 100 88 100 5 0 4 0 4 5 5 5 5 0 0 0 5 0 1 4
80 100 100 70 100 100 100 48 8 5 37 100 100 100 100 24 27 4 0 2 0 5 5 5 5 69 8 5 5 5 5 1
92 100 100 96 100 100 96 23 15 8 31 100 100 100 100 100 100 100 99 4 5 5 5 5 32 85 100 20 5 5 33 7
65 99 100 100 100 81 60 100 99 63 84 100 100 100 100 100 100 100 42 5 5 5 5 19 12 99 96 94 36 15 24 20
39 86 77 72 70 44 96 96 100 96 97 100 100 95 100 100 100 100 100 16 20 5 3 5 18 99 100 100 30 72 100 54
5 45 90 95 100 70 72 44 89 100 100 100 100 100 100 100 100 100 90 39 41 6 8 5 50 93 85 97 38 57 44 94
0 11 51 85 100 84 91 92 100 100 100 100 100 100 100 100 100 100 100 40 98 82 70 25 25 19 99 99 100 100 100 100
5 3 14 32 100 100 61 99 100 100 100 100 100 100 100 94 99 100 100 69 87 60 78 88 98 100 100 96 72 100 100 100
13 5 5 39 11 100 100 100 100 100 100 100 97 87 100 100 98 100 100 100 100 100 98 86 100 100 100 99 98 100 100 98
93 5 42 45 24 50 69 97 100 100 86 91 52 100 100 100 100 50 97 100 100 100 100 100 100 100 100 73 99 100 100 100
53 16 51 15 44 52 16 10 79 96 100 100 99 100 97 100 98 100 100 100 100 100 100 100 100 100 100 100 100 100 100 100
96 96 13 73 95 66 85 100 84 22 53 69 93 56 99 100 100 100 100 94 86 98 100 100 100 100 100 100 100 100 100 100
100 100 89 76 100 100 100 100 56 70 100 100 100 100 100 100 100 100 100 100 100 100 100 100 100 100 100 100 100 100 100 100
100 100 98 100 100 100 100 100 100 100 100 100 100 100 98 90 100 100 96 97 100 100 100 100 100 100 100 100 100 100 100 100
100 100 100 97 75 96 100 100 100 100 100 100 100 83 99 90 84 100 99 98 100 100 100 100 100 100 100 100 100 100 100 100
100 100 100 26 20 35 73 74 100 100 100 100 100 100 100 100 99 93 99 100 100 95 98 92 100 100 100 100 100 100 100 100
100 100 95 65 21 46 96 100 100 100 100 100 100 100 100 100 100 100 100 100 100 100 100 100 100 100 100 100 100 100 100 100
100 100 100 100 76 23 38 41 100 100 100 100 100 100 100 100 100 100 100 100 99 100 100 100 100 100 100 100 100 100 100 100
100 100 100 96 66 58 85 100 100 100 100 100 100 100 100 100 100 100 100 100 99 100 100 100 100 100 100 100 92 100 100 97
100 100 100 100 100 100 100 100 100 100 100 100 100 100 100 100 100 100 100 100 100 100 100 100 100 100 100 100 100 100 100 100

GFSFLT2_prec_cloud_198.txt.gz
Cloud_Cover
42 100 50 0 0 83 100 100 100 94 7 11 100 51 100 100 15 42 100 5 0 5 6 5 5 5 5 1 4 2 0 0
65 98 100 46 12 20 100 100 56 5 5 5 23 82 100 86 100 100 100 61 5 5 25 97 5 5 5 0 5 5 5 5
76 100 100 89 38 84 100 99 5 7 34 5 40 11 100 100 100 100 100 100 55 5 5 72 97 6 5 4 4 5 5 5
92 98 100 100 100 88 100 54 34 99 100 21 46 75 99 100 100 100 100 100 97 6 5 5 22 20 5 12 5 5 7 5
94 97 100 100 100 100 96 80 65 100 100 100 99 100 100 100 100 100 100 100 98 5 12 5 5 5 5 5 5 21 23 34
41 86 100 100 99 100 97 100 100 100 100 100 100 100 100 100 99 100 100 88 35 49 43 96 72 12 63 68 5 21 36 84
8 68 79 84 66 81 83 100 100 100 100 96 91 100 99 98 92 100 100 99 100 87 67 68 32 87 100 100 99 81 100 64
5 32 64 39 100 23 56 94 84 99 100 100 100 52 93 59 100 100 100 100 85 99 100 88 100 100 100 100 100 100 100 100
5 5 46 90 100 30 6 5 44 40 100 100 100 92 55 36 70 100 100 98 62 100 100 100 100 100 100 100 100 100 100 96
5 5 75 100 44 51 25 5 2 83 100 100 100 98 56 39 53 75 95 84 86 100 100 100 91 100 100 100 100 100 100 100
5 15 100 99 57 59 35 14 45 100 100 100 100 94 73 91 100 100 100 100 100 100 98 100 100 100 100 100 100 100 100 100
100 100 100 100 94 100 100 87 100 100 100 100 100 96 100 100 100 100 100 100 97 66 100 92 100 100 100 100 100 100 100 100
100 100 100 100 100 100 100 84 100 98 67 52 41 50 41 75 100 70 53 76 100 80 100 100 100 100 100 100 100 100 100 100
96 100 100 100 100 100 98 58 99 56 79 48 29 87 73 100 41 58 94 78 100 100 100 100 100 100 100 100 100 100 100 100
100 100 100 100 100 100 100 100 100 100 100 100 100 92 98 100 100 100 100 100 100 100 100 100 100 100 100 100 100 100 100 100
100 100 92 100 100 100 100 100 100 100 100 100 100 100 100 100 100 100 100 100 100 100 100 100 100 100 100 100 100 100 100 100
100 100 100 100 100 100 100 100 99 100 100 100 100 100 100 100 100 100 100 100 100 100 100 100 100 100 100 100 100 100 100 100
100 100 100 100 100 100 100 100 100 100 100 100 100 100 100 100 100 100 100 100 100 100 100 100 100 100 100 100 100 100 100 100
100 100 100 100 100 100 100 100 100 100 100 100 100 100 100 100 100 100 100 100 100 100 100 100 100 100 100 100 100 99 100 100
100 100 100 100 100 100 100 100 100 100 100 100 100 100 100 100 100 100 100 66 100 100 100 100 100 99 92 100 99 83 100 100

GFSFLT2_prec_cloud_204.txt.gz
Cloud_Cover
100 1 0 19 0 0 0 5 5 2 0 2 5 7 33 100 100 100 72 76 92 83 5 5 5 3 5 2 4 4 1 5
100 2 0 3 1 7 0 4 5 5 0 12 5 5 39 100 100 100 100 82 5 6 0 5 5 5 11 8 7 5 5 0
100 49 0 2 0 4 43 6 2 63 5 10 61 35 44 98 18 74 100 5 5 5 4 0 0 1 2 4 5 4 1 4
100 93 0 0 0 2 29 1 0 5 40 21 62 5 5 5 5 35 57 9 5 1 2 0 18 0 4 5 5 5 8 5
100 49 0 12 5 5 95 5 4 5 30 5 31 5 5 5 5 6 5 5 4 11 6 5 6 5 28 5 17 5 5 5
100 28 1 40 48 5 100 6 14 8 6 5 5 5 5 5 6 5 17 6 5 5 16 100 100 100 100 17 100 100 66 100
100 0 13 98 13 69 100 27 64 44 58 7 5 5 19 90 100 79 5 5 5 5 41 47 99 88 100 99 100 100 100 94
34 8 100 100 19 87 43 5 65 86 53 49 16 5 5 95 23 23 11 5 5 14 86 98 100 100 100 98 91 94 100 100
11 5 99 100 94 84 69 75 100 100 100 100 62 76 7 7 5 5 94 26 35 100 100 100 100 100 100 100 100 100 100 100
5 11 98 100 58 50 54 76 98 100 100 100 100 98 70 28 5 10 29 72 16 51 91 36 35 27 19 63 34 100 100 100
5 18 58 100 100 83 100 100 100 100 100 100 100 100 92 38 7 32 62 71 94 27 100 100 100 100 100 100 100 100 100 100
5 5 64 100 100 100 100 100 100 100 100 100 100 100 100 100 10 31 100 100 100 100 100 100 100 100 90 100 100 100 100 100
29 100 100 100 100 100 100 100 100 100 100 100 100 100 100 100 89 100 100 68 100 100 76 81 95 82 100 100 100 100 100 100
18 100 100 100 100 100 100 100 100 100 100 100 100 100 100 100 100 100 100 90 100 100 100 96 100 98 90 100 100 100 100 100
39 98 100 100 100 100 100 100 100 100 100 100 100 100 100 100 100 100 100 100 100 100 100 100 100 100 98 100 100 100 100 100
23 90 100 98 100 100 100 100 100 100 100 100 100 100 100 100 100 100 100 100 100 100 100 100 100 100 100 100 100 100 100 100
51 88 94 63 100 100 100 100 100 100 100 100 100 100 100 100 100 100 100 100 100 100 100 100 100 100 100 100 100 100 100 100
100 100 100 100 100 100 100 100 100 100 100 100 100 100 100 100 100 100 100 100 100 100 100 100 100 100 100 100 100 100 100 100
100 100 100 100 100 100 100 100 100 100 100 100 100 100 100 100 100 99 86 100 100 100 100 100 100 100 100 100 100 100 100 100
100 100 100 100 100 100 100 100 100 100 100 100 100 100 100 100 100 97 96 83 100 100 100 100 100 100 100 100 100 100 100 100